Regional Weather Roundup
Issued by NWS Northern Indiana

Home | Current Version | Previous Version | Text Only | Print | Product List | Glossary Off
Versions: 1 2 3 4 5 6 7 8 9 10 11 12 13 14 15 16 17 18 19 20 21 22 23 24 25 26 27 28 29 30 31 32 33 34 35 36 37 38 39 40 41 42 43 44 45 46 47 48 49 50

930
ASUS43 KIWX 060710
RWRIWX

KIWX WEATHER ROUNDUP
NATIONAL WEATHER SERVICE NORTHERN INDIANA
200 AM EST SAT FEB 06 2016

NOTE: "FAIR" INDICATES FEW OR NO CLOUDS BELOW 12,000 FEET WITH NO
SIGNIFICANT WEATHER AND/OR OBSTRUCTIONS TO VISIBILITY.

* THESE STATIONS ARE NOT UNDER NWS QUALITY CONTROL. THEY ALSO MAY NOT
  REPORT WEATHER SUCH AS PRECIPITATION OR FOG.

INZ001>027-060800-
NORTHERN INDIANA

CITY           SKY/WX    TMP DP  RH WIND       PRES   REMARKS
GARY*          PTCLDY    25  21  87 CALM      30.32F FOG
VALPARAISO     CLEAR     23  20  88 W6        30.31F WCI  16
MICHIGAN CITY* CLEAR     23  23 100 SW5       30.31F FOG     WCI  17
LAPORTE*       MOCLDY    25  25 100 W5        30.31F FOG     WCI  19
SOUTH BEND     CLEAR     21  20  96 SW6       30.31S FOG     WCI  13
GOSHEN         CLEAR     25  21  85 SW5       30.30S FOG     WCI  19
MONTICELLO*    CLEAR     23  20  87 S5        30.32S WCI  17
LOGANSPORT*    PTCLDY    23  19  86 SW3       30.33S
ROCHESTER*     CLOUDY    28  23  80 W3        30.32S
WARSAW*        CLEAR     23  23 100 W3        30.30S FOG
ANGOLA*        CLEAR     25  21  86 CALM      30.27S
FORT WAYNE     CLOUDY    28  24  85 NW3       30.31S
HUNTINGTON*    CLOUDY    26  21  83 CALM      30.31R
PERU/GRISSOM   PTCLDY    22  21  96 W3        30.30S
MARION*        CLOUDY    24  18  77 CALM      30.32S

$$
INZ028>050-060800-
CENTRAL INDIANA

CITY           SKY/WX    TMP DP  RH WIND       PRES   REMARKS
LAFAYETTE      CLOUDY    20  18  92 CALM      30.33F
KOKOMO*        CLOUDY    25  19  80 SW5       30.32S WCI  19
MUNCIE*        CLOUDY    26  21  81 SW3       30.31F
INDIANAPOLIS   CLOUDY    22  18  85 S6        30.32F WCI  14

$$
MIZ043>046-050>051-056>058-064>065-071>073-077>080-060800-
SOUTHWEST LOWER MICHIGAN

CITY           SKY/WX    TMP DP  RH WIND       PRES   REMARKS
BATTLE CREEK   CLEAR     23  19  85 S5        30.26F WCI  17
BENTON HARBOR  MOCLDY    26  22  84 SW7       30.29F WCI  18
COLDWATER*     PTCLDY    23  20  91 SW5       30.28S WCI  16
HILLSDALE*     CLEAR     23  21  91 CALM      30.25F
HOLLAND        PTCLDY    21  18  88 CALM      30.27F
GRAND RAPIDS   CLEAR     20  17  88 S3        30.26F
KALAMAZOO      CLEAR     23  19  85 SW8       30.27F WCI  14
STURGIS*       CLEAR     21  20  95 CALM      30.27F
THREE RIVERS*  FAIR      22  20  92 SW5       30.29F WCI  16

$$
OHZ001>008-015>018-024>025-060800-
NORTHWEST OHIO

CITY           SKY/WX    TMP DP  RH WIND       PRES   REMARKS
DEFIANCE       PTCLDY    29  23  78 CALM      30.30S
FINDLAY        CLOUDY    28  23  81 W8        30.28F WCI  20
TOLEDO EXPRESS CLOUDY    26  23  88 W3        30.28F
TOLEDO METCALF CLOUDY    28  23  81 SW7       30.29S WCI  21
LIMA           CLOUDY    26  22  84 SW6       30.29F WCI  19

$$
AND FOR LAKE MICHIGAN COASTAL AND OPEN LAKE BUOY OBSERVATIONS

STATION/POSITION TEMP    WIND        PRES    VSBY  WAVE
                 AIR SEA DIR/SP/G                  HT/PER
                 (F)     (DEG/KT/KT) (MB)    (MI)  (FT/S)
CALUMET HARBOR    26     240/  4/  6 1026.0R
MICHIGAN CITY     26     190/  9/ 10   N/A
BURNS HARBOR      27     220/  8/ 10 1027.1F
SAINT JOSEPH      29     170/  9/ 12 1026.4F

$$
&&




USA.gov is the U.S. government's official web portal to all federal, state and local government web resources and services.